Regional Weather Roundup
Issued by NWS

Home | Current Version | Previous Version | Graphics & Text | Print | Product List | Glossary Off
Versions: 1 2 3 4 5 6 7 8 9 10 11 12 13 14 15 16 17 18 19 20 21 22 23 24 25 26 27 28 29 30 31 32 33 34 35 36 37 38 39 40 41 42 43 44 45 46 47 48 49 50

000
ASUS43 KDMX 261203
RWRIA

WEATHER ROUNDUP FOR IOWA
NATIONAL WEATHER SERVICE DES MOINES IA
700 AM CDT MON SEP 26 2016

NOTE: "FAIR" INDICATES FEW OR NO CLOUDS BELOW 12,000 FEET WITH NO
SIGNIFICANT WEATHER AND/OR OBSTRUCTIONS TO VISIBILITY.

* - THESE STATIONS ARE NOT NWS STATIONS...THUS NOT UNDER NWS
QUALITY CONTROL.  THEY ALSO DO NOT REPORT WEATHER SUCH
AS PRECIPITATION OR FOG.

IAZ001>003-012>014-020>022-031>034-043>046-261300-
   NORTHWEST IOWA

CITY           SKY/WX    TMP DP  RH WIND       PRES   REMARKS
CARROLL *      CLEAR     46  39  76 W8        30.17S
CHEROKEE *     CLEAR     44  38  82 W6        30.17R
DENISON *      CLEAR     45  39  81 CALM      30.18S
LE MARS *      CLEAR     45  37  76 CALM      30.19S
ORANGE CITY *  CLEAR     43  37  81 W6        30.17S
SHELDON *      CLEAR     43  37  81 W9        30.14S
SIOUX CITY     CLEAR     45  37  73 W5        30.20S
6HR MIN TEMP:  45; 6HR MAX TEMP:  50;

SPENCER        CLEAR     44  38  79 W10       30.13S
6HR MIN TEMP:  44; 6HR MAX TEMP:  49;

STORM LAKE *   CLEAR     41  37  87 W12       30.16S
$$

IAZ055>058-069>071-079>083-090>094-261300-
   SOUTHWEST IOWA

CITY           SKY/WX    TMP DP  RH WIND       PRES   REMARKS
ATLANTIC *     CLEAR     48  39  71 W9        30.21R
AUDUBON *      CLEAR     45  39  81 W5        30.21R
CLARINDA *       N/A     45  43  93 MISG      30.24S
COUNCIL BLFS * CLEAR     46  41  81 SW6       30.23R
CRESTON *      CLEAR     45  41  87 W8        30.21S
HARLAN  *      CLEAR     45  41  87 W6        30.24S
LAMONI         CLEAR     46  42  86 W7        30.19S
6HR MIN TEMP:  46; 6HR MAX TEMP:  54;

RED OAK *      PTCLDY    46  41  81 W9        30.23R
SHENANDOAH *   CLEAR     45  41  87 SW3       30.24S
$$

IAZ047>049-059>061-072>074-084-261300-
   CENTRAL IOWA

CITY           SKY/WX    TMP DP  RH WIND       PRES   REMARKS
AMES           CLEAR     49  42  77 W12       30.14R
6HR MIN TEMP:  48; 6HR MAX TEMP:  53;

ANKENY *         N/A    N/A N/A N/A MISG        N/A
BOONE *        CLEAR     48  39  71 W10       30.14R
CHARITON *       N/A     46  43  87 W9        30.16S
DES MOINES     CLEAR     50  41  71 W8        30.15R
6HR MIN TEMP:  50; 6HR MAX TEMP:  57;

GRINNELL*      CLEAR     48  41  76 W10       30.13R
KNOXVILLE *    CLEAR     46  41  81 W9        30.14R
MARSHALLTOWN   CLEAR     48  42  80 W10       30.10R
6HR MIN TEMP:  47; 6HR MAX TEMP:  53;

NEWTON *       CLEAR     46  43  87 W7        30.13R
PELLA *        CLEAR     51  44  77 W8        30.15R
PERRY *          N/A     47  42  85 W7        30.16S
$$

IAZ004>006-015-016-023>025-035-036-261300-
   NORTH CENTRAL IOWA

CITY           SKY/WX    TMP DP  RH WIND       PRES   REMARKS
ALGONA *       CLEAR     46  39  76 W12       30.10S
CLARION *      CLEAR     48  41  76 W9G17     30.10S
ESTHERVILLE    CLEAR     46  38  73 W9        30.10R
6HR MIN TEMP:  46; 6HR MAX TEMP:  52;

FORT DODGE *   CLEAR     46  37  71 W8        30.12S
MASON CITY     CLEAR     47  39  74 W14       30.08R
6HR MIN TEMP:  47; 6HR MAX TEMP:  51;

FOREST CITY *    N/A     45  37  76 W8        30.07R
WEBSTER CITY * CLEAR     46  41  81 W9        30.10S
IOWA FALLS *     N/A     47  41  79 W9        30.11S
$$

IAZ007>011-017>019-026>030-037>042-050>054-066-261300-
   NORTHEAST IOWA

CITY           SKY/WX    TMP DP  RH WIND       PRES   REMARKS
CEDAR RAPIDS   CLEAR     50  44  80 W12       30.07S
6HR MIN TEMP:  49; 6HR MAX TEMP:  57;

CHARLES CITY * CLEAR     48  41  76 W10       30.05S
CLINTON *      CLEAR     50  47  89 W8        30.07R
DECORAH *      CLEAR     48  43  81 VRB7      29.99F
DUBUQUE        CLEAR     48  44  86 W9        30.03S
6HR MIN TEMP:  48; 6HR MAX TEMP:  57;

MONTICELLO *   CLEAR     50  43  76 W10       30.05S
OELWEIN *      CLEAR     48  43  81 W8        30.05S
WATERLOO       CLEAR     49  42  77 W12       30.06R
6HR MIN TEMP:  49; 6HR MAX TEMP:  56;

$$

IAZ064-065-067-068-078-261300-
   EAST CENTRAL IOWA

CITY           SKY/WX    TMP DP  RH WIND       PRES   REMARKS
DAVENPORT      CLEAR     51  46  83 W9        30.08R
6HR MIN TEMP:  51; 6HR MAX TEMP:  59;

IOWA CITY      CLEAR     49  44  83 W6        30.10S
6HR MIN TEMP:  49; 6HR MAX TEMP:  59;

MUSCATINE *    CLEAR     52  45  76 W9        30.10S
QUAD CITIES    CLEAR     52  46  80 SW7       30.08R
6HR MIN TEMP:  52; 6HR MAX TEMP:  62;

$$

IAZ062-063-075>077-085>089-095>099-261300-
   SOUTHEAST IOWA

CITY           SKY/WX    TMP DP  RH WIND       PRES   REMARKS
BURLINGTON     CLEAR     51  48  89 W6        30.12R
6HR MIN TEMP:  50; 6HR MAX TEMP:  61;

FAIRFIELD *    PTCLDY    48  43  81 W8        30.13R
FORT MADISON * CLEAR     52  46  82 W6        30.14S
KEOKUK *       CLEAR     50  46  87 W7        30.14R
OSKALOOSA *      N/A     45  42  91 W7        30.14R
OTTUMWA        CLEAR     47  42  83 W8        30.14R
6HR MIN TEMP:  47; 6HR MAX TEMP:  56;

WASHINGTON *     N/A    N/A N/A N/A MISG        N/A
$$

ABBREVIATIONS USED IN REMARKS
   TC - TEMPERATURES IN CELSIUS
  WCI - WIND CHILL INDEX
   HX - HEAT INDEX
  VSB - VISIBILITY
$$





USA.gov is the U.S. government's official web portal to all federal, state and local government web resources and services.